Location: Asheville, NC
(35.6000°N, 82.5500°W)
Time: 08:58:02
(UTC-05:00)

Tiangong 2 - Pass Details

Date: 08 December 2017
Orbit: 384 x 390 km, 42.8° (Epoch: 17 January)

Event Time Altitude Azimuth Distance (km) Brightness Sun altitude
Exits shadow 05:59:52 40° 342° (NNW) 579 1.6 -17.3°
Maximum altitude 06:00:31 48° 21° (NNE) 511 1.6 -17.2°
Drops below altitude 10° 06:03:36 10° 98° (E) 1,410 5.2 -16.6°
Sets 06:05:43 0° 104° (ESE) 2,264 6.8 -16.2°
